Find Starlink 36653

NORAD ID: 67842 Int'l Des: 2026-033 Owner: SPXS Country: US Constellation: starlink operational
LEOCIRCULAR

当前视图

正在加载3D地球...

About Starlink 36653

Starlink 36653 (NORAD 67842) is a starlink constellation satellite (v2 mini) launched Feb 16, 2026 by SPXS of US. It operates in LEO, CIRCULAR orbit with a mass of 575.00 kg.

关于 Starlink 36653

正在加载描述...

即将过境

Passes for default location (London). Set your location on the main map for personalized predictions.

高度历史

Loading altitude history...

两行轨道根数

1 67842U 26033X 26194.54773755 .00012538 00000-0 46423-3 0 9997
2 67842 43.0029 276.1655 0001660 279.9969 80.0695 15.27590299 23926
Epoch: Jul 13, 2026 • Age: 19 hours

当前状态

高度 484.8 km
远地点 / 近地点 N/A
速度 7.62 km/s
星下点 -13.36°S, 153.48°W
发射日期 Feb 16, 2026
运行时间 0.4 years
类型 internet

技术详情

分类 Payload
质量 575.00 kg
干质量 530.00 kg
总质量 575.00 kg
长度 0.30 m
直径 4.10 m
跨度 29.00 m
形状 Box + pan
制造商 SPXS
平台类型 Starlink V2MO
阶段状态 In Orbit
所有者/国家 SPXS/US

Most Searched